Regional Weather Roundup
Issued by NWS

Home | Current Version | Previous Version | Text Only | Print | Product List | Glossary On
Versions: 1 2 3 4 5 6 7 8 9 10 11 12 13 14 15 16 17 18 19 20 21 22 23 24 25 26 27 28 29 30 31 32 33 34 35 36 37 38 39 40 41 42 43 44 45 46 47 48 49 50
000
ASUS43 KIND 041909
RWRIN

WEATHER ROUNDUP FOR INDIANA
NATIONAL WEATHER SERVICE INDIANAPOLIS IN
200 PM EST SUN DEC 04 2016

NOTE: "FAIR" INDICATES FEW OR NO CLOUDS BELOW 12,000 FEET WITH NO
SIGNIFICANT WEATHER AND/OR OBSTRUCTIONS TO VISIBILITY.

* - STATION DOES NOT REPORT WEATHER SUCH AS PRECIPITATION OR FOG.

+ - STATION NOT QUALITY CONTROLLED BY THE NATIONAL WEATHER SERVICE.
    USE DATA WITH CAUTION...ESPECIALLY DEWPOINT AND RELATIVE
    HUMIDITY OBSERVATIONS.

INZ001>003-010>013-019-020-042000-
NORTHWEST INDIANA

CITY           SKY/WX    TMP DP  RH WIND       PRES   REMARKS
KNOX *+        CLOUDY    32  21  64 E6        29.98F VSB 1   WCI  26
LA PORTE +     SNOW     N/A N/A N/A E6        29.99F VSB 1/2
MICHIGAN CITY+ LGT SNOW  32  32 100 CALM      30.00F VSB 3/4
MONTICELLO +   LGT RAIN  35  30  84 E6        29.95F WCI  30
RENSSELAER +   LGT SNOW  32  32 100 NE5       29.96F VSB 1   WCI  27
VALPARAISO     SNOW      33  31  92 E7        29.98F VSB 1/2 WCI  27

$$

LMZ046-743>745-042000-
SOUTHERN LAKE MICHIGAN

STATION/POSITION TIME  TEMP    WIND        PRES    WAVE
                       AIR SEA DIR/SP/G            HT
                 (UTC) (F)     (DEG/KT/KT) (MB)    (FT)
BURNS HARBOR     1840   33      90/  7/  9 1016.3F

$$

INZ004-005-014>016-021>024-042000-
NORTH CENTRAL INDIANA

CITY           SKY/WX    TMP DP  RH WIND       PRES   REMARKS
ELKHART        LGT SNOW  34  32  93 E6        30.01F WCI  29
GOSHEN         LGT SNOW  37  29  72 E9        30.01F
LOGANSPORT +   LGT RAIN  36  32  87 E10       29.97F
PERU/GRISSOM   FLURRIES  36  35  94 E9        29.95F
ROCHESTER +    LGT SNOW  36  34  93 E7        29.98F
SOUTH BEND     LGT SNOW  32  32 100 E6        30.01F VSB 1   WCI  26
WARSAW +       LGT RAIN  36  30  80 SE7       30.00F

$$

INZ006>009-017-018-025>027-042000-
NORTHEAST INDIANA

CITY           SKY/WX    TMP DP  RH WIND       PRES   REMARKS
ANGOLA *+      PTSUNNY   36  30  80 SE7       30.02F
AUBURN +       PTSUNNY   37  30  75 E5        30.02F
FORT WAYNE     CLOUDY    39  30  70 SE13      30.01F
HUNTINGTON +   DRIZZLE   37  32  80 SE7       29.99F
KENDALLVILLE + CLOUDY    37  30  77 SE6       30.02F

$$

INZ028-029-035-036-043>045-051>053-042000-
WEST CENTRAL INDIANA

CITY           SKY/WX    TMP DP  RH WIND       PRES   REMARKS
CRAWFORDSVL +  CLOUDY    37  37 100 E7        29.91F FOG
GREENCASTLE +  CLOUDY    37  37 100 SE7       29.91F FOG
LAFAYETTE      LGT RAIN  36  35  96 NE9       29.94F FOG
TERRE HAUTE    LGT RAIN  40  37  89 SE7       29.91F FOG

$$

INZ030>032-037>040-046>048-054>057-064-065-042000-
CENTRAL INDIANA

CITY           SKY/WX    TMP DP  RH WIND       PRES   REMARKS
CP ATTERBURY + CLOUDY    41  34  75 SE9       29.94F
FISHERS *+     CLOUDY    37  36  93 E6        29.93F
FRANKFORT +    DRIZZLE   40  37  89 E9        29.94F
GREENWOOD *+   CLOUDY    40  35  80 SE8       29.94F
INDIANAPOLIS   LGT RAIN  40  34  79 E12       29.92F
-EAGLE CREEK   LGT RAIN  41  34  76 E7        29.92F
MARION +       CLOUDY    38  32  80 E9        29.97F HAZE
MT COMFORT *+  CLOUDY    39  34  81 E10       29.94F
SHELBYVILLE    LGT RAIN  41  33  73 SE12      29.93F
ZIONSVILLE +   DRIZZLE   37  33  85 E10       29.94F

$$

INZ033-034-041-042-049-050-058-059-042000-
EAST CENTRAL INDIANA

CITY           SKY/WX    TMP DP  RH WIND       PRES   REMARKS
MUNCIE         LGT RAIN  40  32  73 SE12      29.96F

$$

INZ060-061-067>069-081>083-085>088-042000-
SOUTHWEST INDIANA

CITY           SKY/WX    TMP DP  RH WIND       PRES   REMARKS
EVANSVILLE     LGT RAIN  44  41  89 S6        29.94F FOG
HUNTINGBURG *+ LGT RAIN  44  43  96 S8        29.94F FOG
WASHINGTON +   DRIZZLE   42  42 100 S7        29.92F

$$

INZ062-063-066-070>080-084-089>092-042000-
SOUTH CENTRAL AND SOUTHEAST INDIANA

CITY           SKY/WX    TMP DP  RH WIND       PRES   REMARKS
BLOOMINGTON    CLOUDY    41  36  82 SE8       29.91F HAZE
MADISON *+     CLOUDY    45  34  65 SE6       29.97F
NORTH VERNON + CLOUDY    45  39  81 SE6       29.96

$$





USA.gov is the U.S. government's official web portal to all federal, state and local government web resources and services.